TimeCDT,TemperatureF,Dew PointF,Humidity,Sea Level PressureIn,VisibilityMPH,Wind Direction,Wind SpeedMPH,Gust SpeedMPH,PrecipitationIn,Events,Conditions,WindDirDegrees,DateUTC
1:15 AM,77.2,69.8,78,29.93,7.0,SSE,12.7,-,N/A,,Overcast,150,2013-05-09 06:15:00
3:15 AM,76.6,70.2,80,29.87,5.0,SE,11.5,-,N/A,,Haze,140,2013-05-09 08:15:00
3:35 AM,76.3,70.2,81,29.87,5.0,SE,11.5,18.4,N/A,,Haze,140,2013-05-09 08:35:00
4:35 AM,75.4,70.3,84,29.86,5.0,SE,8.1,-,N/A,,Haze,140,2013-05-09 09:35:00
4:55 AM,74.8,70.0,85,29.87,5.0,SE,8.1,-,N/A,,Haze,140,2013-05-09 09:55:00
6:55 AM,75.6,70.5,84,29.90,5.0,ESE,9.2,-,N/A,,Haze,120,2013-05-09 11:55:00
7:35 AM,75.7,70.3,83,29.90,4.0,SE,10.4,-,N/A,,Haze,130,2013-05-09 12:35:00
8:55 AM,78.3,70.5,77,29.91,4.0,SE,16.1,-,N/A,,Haze,140,2013-05-09 13:55:00
9:15 AM,79.3,70.5,74,29.91,5.0,SSE,12.7,17.3,N/A,,Haze,150,2013-05-09 14:15:00
9:35 AM,80.2,70.2,71,29.91,5.0,SE,12.7,20.7,N/A,,Haze,140,2013-05-09 14:35:00
9:55 AM,80.8,69.8,69,29.92,5.0,SE,12.7,17.3,N/A,,Haze,140,2013-05-09 14:55:00
10:35 AM,81.7,69.4,66,29.92,5.0,SSE,11.5,19.6,N/A,,Haze,150,2013-05-09 15:35:00
10:55 AM,84.0,69.4,61,29.91,5.0,SSE,13.8,-,N/A,,Haze,150,2013-05-09 15:55:00
11:15 AM,83.5,69.1,62,29.93,4.0,SSE,13.8,19.6,N/A,,Haze,160,2013-05-09 16:15:00
11:35 AM,83.1,69.1,62,29.93,5.0,SSE,10.4,-,N/A,,Haze,150,2013-05-09 16:35:00
11:55 AM,84.0,69.3,61,29.91,5.0,South,11.5,-,N/A,,Haze,170,2013-05-09 16:55:00
12:15 PM,84.2,69.1,60,29.91,5.0,SSE,15.0,-,N/A,,Haze,150,2013-05-09 17:15:00
12:55 PM,85.3,69.6,59,29.90,5.0,South,11.5,-,N/A,,Haze,170,2013-05-09 17:55:00
1:15 PM,85.3,69.8,60,29.90,4.0,SSE,13.8,-,N/A,,Haze,150,2013-05-09 18:15:00
1:35 PM,87.1,70.0,57,29.88,5.0,SE,15.0,18.4,N/A,,Haze,140,2013-05-09 18:35:00
1:55 PM,87.1,69.8,56,29.87,5.0,SSE,11.5,20.7,N/A,,Haze,150,2013-05-09 18:55:00
2:35 PM,88.9,69.8,53,29.87,4.0,SSE,13.8,-,N/A,,Haze,150,2013-05-09 19:35:00
3:15 PM,89.1,70.2,53,29.84,5.0,SSE,16.1,-,N/A,,Haze,160,2013-05-09 20:15:00
3:35 PM,90.0,70.2,52,29.82,4.0,SE,15.0,21.9,N/A,,Haze,130,2013-05-09 20:35:00
3:55 PM,89.6,70.0,52,29.82,5.0,SSE,15.0,21.9,N/A,,Haze,160,2013-05-09 20:55:00
4:15 PM,88.7,70.2,54,29.80,5.0,SE,15.0,-,N/A,,Haze,140,2013-05-09 21:15:00
4:35 PM,88.7,70.0,54,29.80,4.0,SSE,17.3,21.9,N/A,,Haze,150,2013-05-09 21:35:00
4:55 PM,90.5,70.2,51,29.79,5.0,SSE,12.7,20.7,N/A,,Haze,160,2013-05-09 21:55:00
5:15 PM,90.7,70.0,50,29.78,5.0,SSE,15.0,23.0,N/A,,Haze,150,2013-05-09 22:15:00
5:35 PM,88.9,69.8,53,29.78,5.0,SE,15.0,-,N/A,,Haze,140,2013-05-09 22:35:00
5:55 PM,88.3,69.8,54,29.77,4.0,SSE,11.5,20.7,N/A,,Haze,150,2013-05-09 22:55:00
6:15 PM,87.8,69.8,55,29.77,4.0,SE,16.1,-,N/A,,Haze,140,2013-05-09 23:15:00
6:35 PM,87.3,69.4,55,29.77,5.0,SSE,12.7,-,N/A,,Haze,150,2013-05-09 23:35:00
6:55 PM,87.1,70.0,57,29.77,4.0,SSE,15.0,20.7,N/A,,Haze,150,2013-05-09 23:55:00
7:15 PM,86.2,70.9,60,29.77,5.0,SE,15.0,-,N/A,,Haze,130,2013-05-10 00:15:00
7:35 PM,85.1,70.7,62,29.77,4.0,SE,10.4,18.4,N/A,,Haze,140,2013-05-10 00:35:00
7:55 PM,84.2,70.7,64,29.77,5.0,SE,13.8,-,N/A,,Haze,140,2013-05-10 00:55:00
8:15 PM,83.5,71.1,66,29.78,4.0,SE,10.4,-,N/A,,Haze,140,2013-05-10 01:15:00
8:35 PM,82.9,71.4,68,29.79,5.0,SSE,8.1,11.5,N/A,,Haze,150,2013-05-10 01:35:00
8:55 PM,82.0,71.1,69,29.80,5.0,SE,10.4,-,N/A,,Haze,140,2013-05-10 01:55:00
9:15 PM,81.5,71.1,70,29.80,4.0,SSE,9.2,-,N/A,,Haze,150,2013-05-10 02:15:00
9:35 PM,80.8,71.2,73,29.82,5.0,SE,8.1,-,N/A,,Haze,140,2013-05-10 02:35:00
9:55 PM,80.1,71.6,75,29.82,5.0,SE,10.4,-,N/A,,Haze,140,2013-05-10 02:55:00
10:15 PM,79.5,71.6,77,29.84,5.0,SE,9.2,-,N/A,,Haze,130,2013-05-10 03:15:00
10:35 PM,78.8,72.0,79,29.85,5.0,ESE,6.9,-,N/A,,Haze,120,2013-05-10 03:35:00
10:55 PM,78.8,72.1,80,29.85,5.0,SE,8.1,-,N/A,,Haze,140,2013-05-10 03:55:00
11:15 PM,79.0,72.5,80,29.85,5.0,SE,8.1,-,N/A,,Haze,140,2013-05-10 04:15:00
11:35 PM,78.8,72.5,81,29.85,5.0,SE,9.2,-,N/A,,Haze,140,2013-05-10 04:35:00